DLH9M EDDH-EDDM

Flight info

Callsign DLH9M
Flight time 0h 57m
Altitude 29000
Route AMLUH2G/33 AMLUH M852 DENIX DCT ZUCKA DCT SODRO T703 LULAR T105 LANDU LANDU2A
Aircraft A321/M-SDE2E3FGIJ1LORWXYZ/HB1

Departure

Time 2026-04-30 18:52
Airport Hamburg Helmut Schmidt Airport (EDDH)

Arrival

Time 2026-04-30 19:49
Airport Munich Airport (EDDM)
Time Latitude Longitude Altitude Speed Heading
2026-04-30 17:39 53.63149 10.00101 49 ft 0 kts 140°
2026-04-30 18:28 53.63159 10.00087 48 ft 4 kts 149°
2026-04-30 18:28 53.63204 10.00085 47 ft 3 kts 227°
2026-04-30 18:29 53.63210 10.00096 45 ft 0 kts 231°
2026-04-30 18:35 53.63204 10.00084 48 ft 4 kts 231°
2026-04-30 18:35 53.63178 10.00032 48 ft 7 kts 231°
2026-04-30 18:36 53.63093 9.99891 48 ft 10 kts 190°
2026-04-30 18:36 53.63022 9.99934 48 ft 12 kts 153°
2026-04-30 18:36 53.62983 9.99969 48 ft 0 kts 152°
2026-04-30 18:45 53.62895 9.99907 48 ft 0 kts 242°
2026-04-30 18:49 53.62891 9.99896 45 ft 3 kts 242°
2026-04-30 18:49 53.62875 9.99843 44 ft 7 kts 242°
2026-04-30 18:49 53.62860 9.99762 45 ft 6 kts 289°
2026-04-30 18:50 53.62886 9.99730 45 ft 0 kts 332°
2026-04-30 18:51 53.62888 9.99728 45 ft 2 kts 332°
2026-04-30 18:51 53.63000 9.99630 45 ft 52 kts 333°
2026-04-30 18:52 53.63569 9.99140 48 ft 128 kts 333°
2026-04-30 18:52 53.64548 9.98298 139 ft 177 kts 336°
2026-04-30 18:52 53.65650 9.97418 962 ft 174 kts 336°
2026-04-30 18:52 53.66762 9.96502 1590 ft 185 kts 335°
2026-04-30 18:53 53.67952 9.95473 1989 ft 204 kts 334°
2026-04-30 18:53 53.69303 9.94527 2442 ft 217 kts 352°
2026-04-30 18:53 53.70827 9.94480 3190 ft 220 kts
2026-04-30 18:53 53.72371 9.94661 3960 ft 225 kts 15°
2026-04-30 18:54 53.73704 9.95910 4792 ft 219 kts 51°
2026-04-30 18:54 53.74336 9.98184 5655 ft 215 kts 84°
2026-04-30 18:54 53.74342 10.00722 6478 ft 217 kts 90°
2026-04-30 18:54 53.74179 10.03235 7233 ft 219 kts 106°
2026-04-30 18:55 53.73531 10.05662 7744 ft 238 kts 119°
2026-04-30 18:55 53.71577 10.10670 8719 ft 266 kts 116°
2026-04-30 18:55 53.70708 10.13451 9468 ft 270 kts 115°
2026-04-30 18:56 53.67992 10.17856 10832 ft 291 kts 156°
2026-04-30 18:56 53.65958 10.18816 11017 ft 316 kts 163°
2026-04-30 18:56 53.63740 10.19670 11344 ft 332 kts 165°
2026-04-30 18:57 53.59138 10.21280 12599 ft 341 kts 165°
2026-04-30 18:57 53.56797 10.22104 13261 ft 345 kts 164°
2026-04-30 18:57 53.54432 10.22954 13939 ft 348 kts 164°
2026-04-30 18:58 53.49669 10.24713 15136 ft 355 kts 163°
2026-04-30 18:58 53.48034 10.25325 15521 ft 357 kts 163°
2026-04-30 18:58 53.45587 10.26243 16096 ft 361 kts 163°
2026-04-30 18:59 53.40658 10.28083 17250 ft 368 kts 163°
2026-04-30 19:00 53.33015 10.30918 18891 ft 380 kts 164°
2026-04-30 19:00 53.30409 10.31872 19314 ft 385 kts 164°
2026-04-30 19:00 53.25150 10.33795 20286 ft 392 kts 163°
2026-04-30 19:01 53.19766 10.35766 21238 ft 398 kts 164°
2026-04-30 19:01 53.17073 10.36754 21701 ft 402 kts 164°
2026-04-30 19:02 53.11547 10.38778 22586 ft 409 kts 164°
2026-04-30 19:02 53.05937 10.40820 23477 ft 415 kts 164°
2026-04-30 19:03 53.00272 10.42865 24269 ft 421 kts 164°
2026-04-30 19:03 52.94498 10.44967 25036 ft 426 kts 165°
2026-04-30 19:04 52.88661 10.47087 25797 ft 431 kts 165°
2026-04-30 19:04 52.82799 10.49205 26545 ft 436 kts 165°
2026-04-30 19:05 52.76832 10.51345 27293 ft 440 kts 165°
2026-04-30 19:05 52.70806 10.53505 28016 ft 445 kts 165°
2026-04-30 19:06 52.64742 10.55674 28727 ft 449 kts 165°
2026-04-30 19:06 52.61670 10.56774 29081 ft 452 kts 165°
2026-04-30 19:06 52.55531 10.58960 29434 ft 448 kts 165°
2026-04-30 19:07 52.49398 10.61130 29439 ft 459 kts 165°
2026-04-30 19:07 52.46246 10.62251 29440 ft 469 kts 165°
2026-04-30 19:08 52.39779 10.64545 29434 ft 485 kts 165°
2026-04-30 19:08 52.33082 10.66905 29437 ft 497 kts 165°
2026-04-30 19:09 52.22829 10.70490 29438 ft 502 kts 165°
2026-04-30 19:09 52.16030 10.72872 29440 ft 502 kts 165°
2026-04-30 19:10 52.02365 10.77629 29461 ft 503 kts 165°
2026-04-30 19:11 51.92091 10.81172 29483 ft 503 kts 165°
2026-04-30 19:12 51.85220 10.83543 29475 ft 504 kts 165°
2026-04-30 19:12 51.78344 10.85919 29469 ft 504 kts 165°
2026-04-30 19:13 51.64902 10.91621 29469 ft 495 kts 150°
2026-04-30 19:14 51.58697 10.96535 29466 ft 495 kts 150°
2026-04-30 19:14 51.52539 11.01376 29469 ft 496 kts 150°
2026-04-30 19:15 51.46321 11.06254 29469 ft 495 kts 150°
2026-04-30 19:15 51.37051 11.13499 29468 ft 495 kts 149°
2026-04-30 19:16 51.30852 11.18345 29463 ft 495 kts 149°
2026-04-30 19:17 51.21564 11.25566 29471 ft 496 kts 149°
2026-04-30 19:17 51.12231 11.32780 29472 ft 495 kts 149°
2026-04-30 19:18 51.02969 11.39903 29469 ft 495 kts 149°
2026-04-30 19:19 50.96771 11.44655 29485 ft 495 kts 149°
2026-04-30 19:19 50.87452 11.51774 29476 ft 494 kts 149°
2026-04-30 19:20 50.81291 11.56473 29463 ft 494 kts 149°
2026-04-30 19:21 50.71972 11.63522 29445 ft 493 kts 149°
2026-04-30 19:22 50.59629 11.72854 29455 ft 494 kts 148°
2026-04-30 19:23 50.40905 11.86660 29416 ft 498 kts 151°
2026-04-30 19:24 50.31287 11.93022 29419 ft 499 kts 152°
2026-04-30 19:25 50.15350 12.03719 29411 ft 492 kts 150°
2026-04-30 19:26 50.08845 12.06256 28587 ft 481 kts 168°
2026-04-30 19:26 50.02276 12.07221 27522 ft 473 kts 169°
2026-04-30 19:26 49.98994 12.07676 27403 ft 473 kts 169°
2026-04-30 19:27 49.92420 12.08601 27447 ft 474 kts 169°
2026-04-30 19:27 49.85887 12.09540 27453 ft 474 kts 169°
2026-04-30 19:28 49.82585 12.10021 27463 ft 474 kts 169°
2026-04-30 19:28 49.76001 12.10976 27454 ft 474 kts 169°
2026-04-30 19:29 49.69473 12.11910 27127 ft 470 kts 171°
2026-04-30 19:29 49.66193 12.11676 26478 ft 474 kts 184°
2026-04-30 19:30 49.56542 12.09307 24589 ft 461 kts 185°
2026-04-30 19:30 49.50303 12.07760 23275 ft 452 kts 185°
2026-04-30 19:31 49.44147 12.06254 21977 ft 442 kts 185°
2026-04-30 19:31 49.41125 12.05518 21352 ft 438 kts 185°
2026-04-30 19:31 49.35150 12.04066 20466 ft 431 kts 185°
2026-04-30 19:32 49.32225 12.03360 20403 ft 431 kts 185°
2026-04-30 19:32 49.29259 12.02645 20421 ft 432 kts 185°
2026-04-30 19:32 49.26286 12.01926 20420 ft 432 kts 185°
2026-04-30 19:32 49.23317 12.01208 20415 ft 432 kts 185°
2026-04-30 19:33 49.20343 12.00491 20394 ft 432 kts 185°
2026-04-30 19:33 49.17364 11.99773 20397 ft 432 kts 185°
2026-04-30 19:33 49.14404 11.99058 20064 ft 427 kts 186°
2026-04-30 19:33 49.11478 11.98349 19471 ft 423 kts 185°
2026-04-30 19:34 49.08620 11.97658 18895 ft 419 kts 185°
2026-04-30 19:34 49.05747 11.96967 18258 ft 415 kts 185°
2026-04-30 19:34 49.00100 11.95623 17411 ft 410 kts 185°
2026-04-30 19:35 48.97271 11.94958 17386 ft 410 kts 185°
2026-04-30 19:35 48.94440 11.94294 17397 ft 410 kts 185°
2026-04-30 19:35 48.91615 11.93626 17397 ft 410 kts 185°
2026-04-30 19:35 48.88786 11.92951 17393 ft 410 kts 185°
2026-04-30 19:36 48.85995 11.92282 17390 ft 411 kts 185°
2026-04-30 19:36 48.83161 11.91603 17389 ft 411 kts 185°
2026-04-30 19:36 48.77534 11.90259 17335 ft 408 kts 185°
2026-04-30 19:37 48.74788 11.89605 17147 ft 393 kts 185°
2026-04-30 19:37 48.72134 11.88969 16995 ft 377 kts 185°
2026-04-30 19:37 48.69576 11.88357 16627 ft 369 kts 185°
2026-04-30 19:37 48.67045 11.87759 16157 ft 365 kts 185°
2026-04-30 19:38 48.64568 11.87177 15681 ft 361 kts 185°
2026-04-30 19:38 48.62097 11.86597 15217 ft 357 kts 185°
2026-04-30 19:38 48.59645 11.86025 14744 ft 354 kts 185°
2026-04-30 19:38 48.57217 11.85448 14295 ft 351 kts 187°
2026-04-30 19:39 48.54920 11.84191 13801 ft 353 kts 210°
2026-04-30 19:39 48.53109 11.81803 13306 ft 351 kts 231°
2026-04-30 19:39 48.51650 11.78861 12795 ft 349 kts 234°
2026-04-30 19:39 48.50248 11.75887 12323 ft 345 kts 234°
2026-04-30 19:40 48.48868 11.72941 11844 ft 342 kts 234°
2026-04-30 19:40 48.47515 11.70027 11456 ft 337 kts 234°
2026-04-30 19:40 48.46183 11.67149 11359 ft 336 kts 234°
2026-04-30 19:40 48.44850 11.64240 11378 ft 338 kts 238°
2026-04-30 19:41 48.43956 11.60988 11191 ft 334 kts 259°
2026-04-30 19:41 48.43608 11.57541 10709 ft 331 kts 264°
2026-04-30 19:41 48.43343 11.54104 10228 ft 329 kts 264°
2026-04-30 19:41 48.43092 11.50684 9696 ft 328 kts 264°
2026-04-30 19:42 48.42850 11.47309 9174 ft 326 kts 264°
2026-04-30 19:42 48.42300 11.44024 8649 ft 321 kts 243°
2026-04-30 19:42 48.41004 11.41448 8140 ft 299 kts 217°
2026-04-30 19:42 48.39243 11.40061 7640 ft 277 kts 189°
2026-04-30 19:43 48.37391 11.39837 7151 ft 261 kts 176°
2026-04-30 19:43 48.35634 11.39966 6664 ft 247 kts 164°
2026-04-30 19:43 48.34147 11.41118 6187 ft 239 kts 128°
2026-04-30 19:44 48.33762 11.45639 5638 ft 223 kts 80°
2026-04-30 19:44 48.33997 11.47912 5344 ft 215 kts 83°
2026-04-30 19:44 48.34173 11.50030 5075 ft 198 kts 84°
2026-04-30 19:44 48.34330 11.51998 4837 ft 184 kts 84°
2026-04-30 19:45 48.34479 11.53880 4570 ft 178 kts 84°
2026-04-30 19:45 48.34622 11.55681 4342 ft 168 kts 84°
2026-04-30 19:45 48.34714 11.56835 4180 ft 161 kts 84°
2026-04-30 19:45 48.34842 11.58455 3974 ft 156 kts 84°
2026-04-30 19:46 48.34968 11.60055 3768 ft 152 kts 84°
2026-04-30 19:46 48.35132 11.62135 3498 ft 149 kts 84°
2026-04-30 19:46 48.35214 11.63176 3361 ft 148 kts 84°
2026-04-30 19:46 48.35336 11.64727 3153 ft 156 kts 84°
2026-04-30 19:47 48.35470 11.66442 2928 ft 166 kts 85°
2026-04-30 19:47 48.35561 11.67590 2774 ft 161 kts 84°
2026-04-30 19:47 48.35726 11.69688 2492 ft 144 kts 84°
2026-04-30 19:47 48.35840 11.71157 2274 ft 140 kts 84°
2026-04-30 19:48 48.35952 11.72588 2070 ft 136 kts 84°
2026-04-30 19:48 48.36060 11.73983 1872 ft 134 kts 85°
2026-04-30 19:48 48.36171 11.75371 1692 ft 134 kts 83°
2026-04-30 19:48 48.36272 11.76764 1521 ft 134 kts 84°
2026-04-30 19:49 48.36371 11.78032 1485 ft 102 kts 82°
2026-04-30 19:49 48.36447 11.79266 1475 ft 30 kts 108°
2026-04-30 19:49 48.36381 11.79499 1478 ft 19 kts 113°
2026-04-30 19:50 48.36327 11.79687 1482 ft 20 kts 113°
2026-04-30 19:50 48.36274 11.79775 1479 ft 11 kts 174°
2026-04-30 19:50 48.36229 11.79683 1482 ft 13 kts 261°
2026-04-30 19:50 48.36219 11.79541 1485 ft 9 kts 263°
2026-04-30 19:51 48.36176 11.79471 1482 ft 11 kts 194°
2026-04-30 19:51 48.36096 11.79479 1482 ft 13 kts 173°
2026-04-30 19:51 48.36002 11.79495 1473 ft 7 kts 173°
2026-04-30 19:51 48.35971 11.79500 1482 ft 1 kts 174°
2026-04-30 19:52 48.35960 11.79502 1479 ft 4 kts 175°
2026-04-30 19:53 48.35915 11.79483 1485 ft 8 kts 206°
2026-04-30 19:53 48.35853 11.79454 1480 ft 11 kts 181°
2026-04-30 19:53 48.35771 11.79460 1481 ft 13 kts 187°
2026-04-30 19:53 48.35677 11.79422 1482 ft 15 kts 189°
2026-04-30 19:54 48.35564 11.79434 1479 ft 17 kts 173°
2026-04-30 19:54 48.35438 11.79456 1478 ft 20 kts 173°
2026-04-30 19:54 48.35336 11.79472 1478 ft 7 kts 183°
2026-04-30 19:54 48.35312 11.79413 1477 ft 7 kts 262°
2026-04-30 19:55 48.35307 11.79353 1485 ft 4 kts 263°
2026-04-30 19:55 48.35305 11.79330 1485 ft 1 kts 263°